Location: Newark
(10.3333°N, 37.7167°E)
Time: 18:45:46
(UTC+00:00)

LightSail 2 - Pass Details

Date: 30 January 2020
Orbit: 700 x 722 km, 24.0° (Epoch: 19 February)

Event Time Altitude Azimuth Distance (km) Brightness Sun altitude
Rises 17:46:26 0° 282° (WNW) 3,076 9.3 -32.5°
Reaches altitude 10° 17:48:58 10° 275° (W) 2,162 8.4 -33.1°
Enters shadow 17:52:13 32° 246° (WSW) 1,190 6.7 -33.9°
